TimeMST,TemperatureF,Dew PointF,Humidity,Sea Level PressureIn,VisibilityMPH,Wind Direction,Wind SpeedMPH,Gust SpeedMPH,PrecipitationIn,Events,Conditions,WindDirDegrees,DateUTC
12:53 AM,21.9,19.9,92,29.93,10.0,South,8.1,-,N/A,,Clear,170,2013-03-07 07:53:00
1:53 AM,24.1,21.9,91,29.90,10.0,SE,8.1,-,N/A,,Clear,140,2013-03-07 08:53:00
2:53 AM,23.0,21.0,92,29.90,10.0,SSE,8.1,-,N/A,,Clear,160,2013-03-07 09:53:00
3:53 AM,25.0,21.9,88,29.89,10.0,South,9.2,-,N/A,,Clear,170,2013-03-07 10:53:00
4:53 AM,23.0,19.9,88,29.92,10.0,South,6.9,-,N/A,,Clear,170,2013-03-07 11:53:00
5:53 AM,19.9,17.1,89,29.95,10.0,Calm,Calm,-,N/A,,Clear,0,2013-03-07 12:53:00
6:53 AM,19.9,17.1,89,29.99,10.0,Calm,Calm,-,N/A,,Clear,0,2013-03-07 13:53:00
7:53 AM,25.0,21.9,88,30.01,10.0,Calm,Calm,-,N/A,,Clear,0,2013-03-07 14:53:00
8:53 AM,36.0,28.0,73,29.99,10.0,SW,4.6,-,N/A,,Clear,230,2013-03-07 15:53:00
9:53 AM,46.0,27.0,47,29.96,10.0,Variable,5.8,-,N/A,,Scattered Clouds,0,2013-03-07 16:53:00
10:53 AM,53.6,26.6,35,29.93,10.0,SSE,4.6,-,N/A,,Clear,160,2013-03-07 17:53:00
11:53 AM,55.9,27.0,33,29.95,10.0,SSE,12.7,-,N/A,,Clear,160,2013-03-07 18:53:00
12:53 PM,61.0,21.9,22,29.93,10.0,SSE,10.4,-,N/A,,Clear,160,2013-03-07 19:53:00
1:53 PM,64.0,21.9,20,29.91,10.0,South,11.5,-,N/A,,Clear,180,2013-03-07 20:53:00
2:53 PM,64.0,19.0,18,29.90,10.0,SSE,10.4,-,N/A,,Clear,160,2013-03-07 21:53:00
3:53 PM,62.1,19.9,20,29.91,10.0,SSE,10.4,-,N/A,,Clear,160,2013-03-07 22:53:00
4:53 PM,60.1,23.0,24,29.93,10.0,SE,8.1,-,N/A,,Clear,140,2013-03-07 23:53:00
5:53 PM,51.1,28.0,41,29.99,10.0,NE,17.3,23.0,N/A,,Clear,50,2013-03-08 00:53:00
6:03 PM,48.2,28.4,46,29.95,10.0,NE,11.5,-,N/A,,Clear,50,2013-03-08 01:03:00
6:53 PM,43.0,28.0,56,30.05,10.0,NE,10.4,-,N/A,,Clear,50,2013-03-08 01:53:00
7:53 PM,36.0,26.1,67,30.07,10.0,East,9.2,-,N/A,,Clear,80,2013-03-08 02:53:00
8:53 PM,32.0,24.1,73,30.06,10.0,NNE,10.4,-,N/A,,Clear,30,2013-03-08 03:53:00
9:53 PM,33.8,24.8,70,30.02,10.0,NE,8.1,-,N/A,,Clear,40,2013-03-08 04:53:00
10:53 PM,30.0,23.0,75,30.03,10.0,NNE,9.2,-,N/A,,Clear,30,2013-03-08 05:53:00
11:53 PM,25.0,21.0,85,30.06,10.0,Calm,Calm,-,N/A,,Clear,0,2013-03-08 06:53:00